Time,TemperatureF,DewpointF,PressureIn,WindDirection,WindDirectionDegrees,WindSpeedMPH,WindSpeedGustMPH,Humidity,HourlyPrecipIn,Conditions,Clouds,dailyrainin,SoftwareType,DateUTC
2013-06-14 00:00:00,65.0,63.8,29.41,NE,35,0.0,0.0,96,0.00,,,0.17,Wunderground v.1.15,2013-06-14 04:00:00,
2013-06-14 00:01:00,65.0,63.8,29.41,NNE,32,0.0,1.0,96,0.00,,,0.17,Wunderground v.1.15,2013-06-14 04:01:00,
2013-06-14 00:02:00,65.0,63.8,29.41,ENE,76,0.0,1.0,96,0.00,,,0.00,Wunderground v.1.15,2013-06-14 04:02:00,
2013-06-14 00:03:00,65.1,64.2,29.41,ENE,76,0.0,1.0,97,0.00,,,0.00,Wunderground v.1.15,2013-06-14 04:03:00,
2013-06-14 00:04:00,65.1,64.2,29.41,South,170,0.0,1.0,97,0.00,,,0.00,Wunderground v.1.15,2013-06-14 04:04:00,
2013-06-14 00:05:00,65.2,64.3,29.41,South,170,0.0,1.0,97,0.00,,,0.00,Wunderground v.1.15,2013-06-14 04:05:00,
2013-06-14 00:11:00,65.3,64.4,29.41,SW,225,1.0,2.0,97,0.00,,,0.00,Wunderground v.1.15,2013-06-14 04:11:00,
2013-06-14 00:17:00,65.3,64.4,29.41,South,183,1.0,2.0,97,0.00,,,0.00,Wunderground v.1.15,2013-06-14 04:17:00,
2013-06-14 00:22:00,65.3,64.4,29.41,South,182,0.0,2.0,97,0.00,,,0.00,Wunderground v.1.15,2013-06-14 04:22:00,
2013-06-14 00:28:00,65.2,64.0,29.41,West,268,1.0,2.0,96,0.00,,,0.00,Wunderground v.1.15,2013-06-14 04:28:00,
2013-06-14 00:34:00,65.2,64.0,29.42,West,262,1.0,1.0,96,0.00,,,0.00,Wunderground v.1.15,2013-06-14 04:34:00,
2013-06-14 00:39:00,65.2,64.0,29.42,West,262,0.0,1.0,96,0.00,,,0.00,Wunderground v.1.15,2013-06-14 04:39:00,
2013-06-14 00:44:00,65.2,64.0,29.42,WNW,290,0.0,3.0,96,0.00,,,0.00,Wunderground v.1.15,2013-06-14 04:44:00,
2013-06-14 00:50:00,65.1,63.9,29.42,WNW,290,0.0,1.0,96,0.00,,,0.00,Wunderground v.1.15,2013-06-14 04:50:00,
2013-06-14 00:55:00,64.9,63.7,29.42,West,261,0.0,2.0,96,0.00,,,0.00,Wunderground v.1.15,2013-06-14 04:55:00,
2013-06-14 01:00:00,64.9,63.7,29.42,SW,229,1.0,1.0,96,0.00,,,0.00,Wunderground v.1.15,2013-06-14 05:00:00,
2013-06-14 01:06:00,64.8,63.6,29.42,South,181,0.0,1.0,96,0.00,,,0.00,Wunderground v.1.15,2013-06-14 05:06:00,
2013-06-14 01:12:00,64.7,63.2,29.43,WSW,244,1.0,1.0,95,0.00,,,0.00,Wunderground v.1.15,2013-06-14 05:12:00,
2013-06-14 01:18:00,64.9,63.4,29.42,WSW,257,1.0,2.0,95,0.00,,,0.00,Wunderground v.1.15,2013-06-14 05:18:00,
2013-06-14 01:23:00,64.8,63.3,29.42,WSW,257,0.0,0.0,95,0.00,,,0.00,Wunderground v.1.15,2013-06-14 05:23:00,
2013-06-14 01:29:00,64.5,63.0,29.42,SE,129,0.0,1.0,95,0.00,,,0.00,Wunderground v.1.15,2013-06-14 05:29:00,
2013-06-14 01:35:00,64.3,62.8,29.42,WNW,294,0.0,0.0,95,0.00,,,0.00,Wunderground v.1.15,2013-06-14 05:35:00,
2013-06-14 01:41:00,64.1,62.6,29.42,WNW,294,0.0,0.0,95,0.00,,,0.00,Wunderground v.1.15,2013-06-14 05:41:00,
2013-06-14 01:48:00,63.9,62.4,29.42,NW,309,0.0,1.0,95,0.00,,,0.00,Wunderground v.1.15,2013-06-14 05:48:00,
2013-06-14 01:54:00,63.7,62.2,29.42,SW,217,1.0,4.0,95,0.00,,,0.00,Wunderground v.1.15,2013-06-14 05:54:00,
2013-06-14 02:00:00,64.4,62.3,29.42,NNW,336,2.0,6.0,93,0.00,,,0.00,Wunderground v.1.15,2013-06-14 06:00:00,
2013-06-14 02:06:00,65.3,62.0,29.42,ENE,60,3.0,6.0,89,0.00,,,0.00,Wunderground v.1.15,2013-06-14 06:06:00,
2013-06-14 02:11:00,65.7,62.0,29.42,SW,224,2.0,5.0,88,0.00,,,0.00,Wunderground v.1.15,2013-06-14 06:11:00,
2013-06-14 02:17:00,66.1,62.1,29.42,West,268,2.0,5.0,87,0.00,,,0.00,Wunderground v.1.15,2013-06-14 06:17:00,
2013-06-14 02:23:00,66.2,62.2,29.42,NE,50,2.0,5.0,87,0.00,,,0.00,Wunderground v.1.15,2013-06-14 06:23:00,
2013-06-14 02:29:00,66.3,62.0,29.42,SSE,150,2.0,5.0,86,0.00,,,0.00,Wunderground v.1.15,2013-06-14 06:29:00,
2013-06-14 02:34:00,66.4,61.8,29.42,West,276,2.0,3.0,85,0.00,,,0.00,Wunderground v.1.15,2013-06-14 06:34:00,
2013-06-14 02:40:00,66.3,61.7,29.43,WNW,296,1.0,2.0,85,0.00,,,0.00,Wunderground v.1.15,2013-06-14 06:40:00,
2013-06-14 02:45:00,66.3,61.7,29.43,ENE,61,1.0,4.0,85,0.00,,,0.00,Wunderground v.1.15,2013-06-14 06:45:00,
2013-06-14 02:51:00,66.1,61.5,29.43,SSE,167,2.0,2.0,85,0.00,,,0.00,Wunderground v.1.15,2013-06-14 06:51:00,
2013-06-14 02:57:00,65.9,60.9,29.43,NNE,15,1.0,9.0,84,0.00,,,0.00,Wunderground v.1.15,2013-06-14 06:57:00,
2013-06-14 03:02:00,65.8,60.8,29.43,ESE,111,2.0,2.0,84,0.00,,,0.00,Wunderground v.1.15,2013-06-14 07:02:00,
2013-06-14 03:08:00,65.7,60.4,29.44,SSE,148,1.0,3.0,83,0.00,,,0.00,Wunderground v.1.15,2013-06-14 07:08:00,
2013-06-14 03:14:00,65.4,60.1,29.44,WSW,257,1.0,2.0,83,0.00,,,0.00,Wunderground v.1.15,2013-06-14 07:14:00,
2013-06-14 03:19:00,65.0,61.0,29.44,West,280,0.0,2.0,87,0.00,,,0.00,Wunderground v.1.15,2013-06-14 07:19:00,
2013-06-14 03:25:00,64.3,60.7,29.45,West,280,1.0,2.0,88,0.00,,,0.00,Wunderground v.1.15,2013-06-14 07:25:00,
2013-06-14 03:31:00,63.8,60.8,29.45,West,280,0.0,0.0,90,0.00,,,0.00,Wunderground v.1.15,2013-06-14 07:31:00,
2013-06-14 03:36:00,63.2,60.2,29.44,West,281,0.0,0.0,90,0.00,,,0.00,Wunderground v.1.15,2013-06-14 07:36:00,
2013-06-14 03:42:00,62.7,60.0,29.44,NW,309,0.0,0.0,91,0.00,,,0.00,Wunderground v.1.15,2013-06-14 07:42:00,
2013-06-14 03:48:00,62.1,59.4,29.44,WNW,300,0.0,1.0,91,0.00,,,0.00,Wunderground v.1.15,2013-06-14 07:48:00,
2013-06-14 03:54:00,61.6,59.3,29.44,NW,310,0.0,1.0,92,0.00,,,0.00,Wunderground v.1.15,2013-06-14 07:54:00,
2013-06-14 04:00:00,61.2,59.2,29.44,NW,310,0.0,0.0,93,0.00,,,0.00,Wunderground v.1.15,2013-06-14 08:00:00,
2013-06-14 04:06:00,60.8,58.8,29.44,NW,325,0.0,2.0,93,0.00,,,0.00,Wunderground v.1.15,2013-06-14 08:06:00,
2013-06-14 04:11:00,60.7,58.7,29.45,NW,325,0.0,1.0,93,0.00,,,0.00,Wunderground v.1.15,2013-06-14 08:11:00,
2013-06-14 04:17:00,60.7,58.4,29.44,WNW,293,0.0,1.0,92,0.00,,,0.00,Wunderground v.1.15,2013-06-14 08:17:00,
2013-06-14 04:23:00,60.8,58.2,29.44,SW,232,0.0,1.0,91,0.00,,,0.00,Wunderground v.1.15,2013-06-14 08:23:00,
2013-06-14 04:29:00,61.0,57.1,29.44,ESE,103,0.0,1.0,87,0.00,,,0.00,Wunderground v.1.15,2013-06-14 08:29:00,
2013-06-14 04:35:00,61.6,57.4,29.45,SW,234,1.0,3.0,86,0.00,,,0.00,Wunderground v.1.15,2013-06-14 08:35:00,
2013-06-14 04:41:00,61.7,57.5,29.45,SSE,168,1.0,1.0,86,0.00,,,0.00,Wunderground v.1.15,2013-06-14 08:41:00,
2013-06-14 04:48:00,61.7,57.5,29.46,ESE,113,0.0,1.0,86,0.00,,,0.00,Wunderground v.1.15,2013-06-14 08:48:00,
2013-06-14 04:54:00,61.7,57.8,29.46,SSE,161,1.0,3.0,87,0.00,,,0.00,Wunderground v.1.15,2013-06-14 08:54:00,
2013-06-14 04:59:00,61.5,57.6,29.47,NW,319,1.0,4.0,87,0.00,,,0.00,Wunderground v.1.15,2013-06-14 08:59:00,
2013-06-14 05:04:00,61.3,57.7,29.47,NW,309,1.0,2.0,88,0.00,,,0.00,Wunderground v.1.15,2013-06-14 09:04:00,
2013-06-14 05:10:00,61.1,57.8,29.47,WNW,283,1.0,1.0,89,0.00,,,0.00,Wunderground v.1.15,2013-06-14 09:10:00,
2013-06-14 05:16:00,60.7,57.1,29.47,WNW,291,0.0,1.0,88,0.00,,,0.00,Wunderground v.1.15,2013-06-14 09:16:00,
2013-06-14 05:22:00,60.6,57.0,29.47,WNW,302,1.0,1.0,88,0.00,,,0.00,Wunderground v.1.15,2013-06-14 09:22:00,
2013-06-14 05:27:00,60.5,57.2,29.47,WNW,286,0.0,1.0,89,0.00,,,0.00,Wunderground v.1.15,2013-06-14 09:27:00,
2013-06-14 05:33:00,60.3,56.4,29.48,WNW,286,0.0,0.0,87,0.00,,,0.00,Wunderground v.1.15,2013-06-14 09:33:00,
2013-06-14 05:39:00,60.3,57.0,29.48,NW,316,0.0,5.0,89,0.00,,,0.00,Wunderground v.1.15,2013-06-14 09:39:00,
2013-06-14 05:44:00,60.4,55.2,29.49,NW,312,1.0,3.0,83,0.00,,,0.00,Wunderground v.1.15,2013-06-14 09:44:00,
2013-06-14 05:50:00,60.9,54.3,29.50,WNW,300,2.0,2.0,79,0.00,,,0.00,Wunderground v.1.15,2013-06-14 09:50:00,
2013-06-14 05:56:00,61.4,55.2,29.50,NNE,25,1.0,4.0,80,0.00,,,0.00,Wunderground v.1.15,2013-06-14 09:56:00,
2013-06-14 06:01:00,61.6,54.7,29.50,NE,43,1.0,2.0,78,0.00,,,0.00,Wunderground v.1.15,2013-06-14 10:01:00,
2013-06-14 06:07:00,61.4,56.2,29.50,North,360,0.0,2.0,83,0.00,,,0.00,Wunderground v.1.15,2013-06-14 10:07:00,
2013-06-14 06:12:00,60.9,55.0,29.51,South,169,0.0,2.0,81,0.00,,,0.00,Wunderground v.1.15,2013-06-14 10:12:00,
2013-06-14 06:18:00,61.1,54.2,29.50,SSW,196,1.0,3.0,78,0.00,,,0.00,Wunderground v.1.15,2013-06-14 10:18:00,
2013-06-14 06:23:00,61.6,54.0,29.51,SSE,155,1.0,4.0,76,0.00,,,0.00,Wunderground v.1.15,2013-06-14 10:23:00,
2013-06-14 06:29:00,61.9,54.6,29.51,SSW,201,2.0,4.0,77,0.00,,,0.00,Wunderground v.1.15,2013-06-14 10:29:00,
2013-06-14 06:34:00,61.6,54.7,29.51,South,182,1.0,2.0,78,0.00,,,0.00,Wunderground v.1.15,2013-06-14 10:34:00,
2013-06-14 06:40:00,61.3,54.0,29.51,SE,144,1.0,4.0,77,0.00,,,0.00,Wunderground v.1.15,2013-06-14 10:40:00,
2013-06-14 06:45:00,61.3,54.4,29.52,SSW,194,1.0,4.0,78,0.00,,,0.00,Wunderground v.1.15,2013-06-14 10:45:00,
2013-06-14 06:51:00,61.3,54.7,29.52,SE,138,1.0,1.0,79,0.00,,,0.00,Wunderground v.1.15,2013-06-14 10:51:00,
2013-06-14 06:57:00,60.7,55.2,29.53,South,171,1.0,2.0,82,0.00,,,0.00,Wunderground v.1.15,2013-06-14 10:57:00,
2013-06-14 07:02:00,60.6,54.0,29.53,SW,217,1.0,3.0,79,0.00,,,0.00,Wunderground v.1.15,2013-06-14 11:02:00,
2013-06-14 07:07:00,61.0,54.1,29.53,SSE,163,2.0,3.0,78,0.00,,,0.00,Wunderground v.1.15,2013-06-14 11:07:00,
2013-06-14 07:13:00,61.3,54.4,29.53,SSE,157,1.0,2.0,78,0.00,,,0.00,Wunderground v.1.15,2013-06-14 11:13:00,
2013-06-14 07:19:00,61.3,54.0,29.53,WSW,250,1.0,4.0,77,0.00,,,0.00,Wunderground v.1.15,2013-06-14 11:19:00,
2013-06-14 07:24:00,61.4,53.8,29.53,WNW,298,2.0,8.0,76,0.00,,,0.00,Wunderground v.1.15,2013-06-14 11:24:00,
2013-06-14 07:30:00,61.9,53.9,29.53,WSW,256,2.0,3.0,75,0.00,,,0.00,Wunderground v.1.15,2013-06-14 11:30:00,
2013-06-14 07:36:00,62.2,53.8,29.53,SSE,155,2.0,4.0,74,0.00,,,0.00,Wunderground v.1.15,2013-06-14 11:36:00,
2013-06-14 07:41:00,62.3,53.5,29.53,SE,136,2.0,3.0,73,0.00,,,0.00,Wunderground v.1.15,2013-06-14 11:41:00,
2013-06-14 07:48:00,62.6,53.1,29.53,NNW,334,2.0,15.0,71,0.00,,,0.00,Wunderground v.1.15,2013-06-14 11:48:00,
2013-06-14 07:54:00,63.0,53.8,29.53,NNE,19,3.0,15.0,72,0.00,,,0.00,Wunderground v.1.15,2013-06-14 11:54:00,
2013-06-14 08:00:00,62.9,54.1,29.52,SW,230,2.0,2.0,73,0.00,,,0.00,Wunderground v.1.15,2013-06-14 12:00:00,
2013-06-14 08:06:00,62.9,53.0,29.53,SSW,207,2.0,3.0,70,0.00,,,0.00,Wunderground v.1.15,2013-06-14 12:06:00,
2013-06-14 08:12:00,63.3,53.3,29.53,WSW,237,2.0,2.0,70,0.00,,,0.00,Wunderground v.1.15,2013-06-14 12:12:00,
2013-06-14 08:17:00,63.5,53.5,29.53,WSW,238,2.0,3.0,70,0.00,,,0.00,Wunderground v.1.15,2013-06-14 12:17:00,
2013-06-14 08:23:00,63.4,53.8,29.54,South,191,1.0,1.0,71,0.00,,,0.00,Wunderground v.1.15,2013-06-14 12:23:00,
2013-06-14 08:29:00,63.3,54.9,29.54,WSW,250,1.0,4.0,74,0.00,,,0.00,Wunderground v.1.15,2013-06-14 12:29:00,
2013-06-14 08:34:00,63.5,53.5,29.55,ESE,118,1.0,3.0,70,0.00,,,0.00,Wunderground v.1.15,2013-06-14 12:34:00,
2013-06-14 08:40:00,63.8,53.4,29.56,SSW,199,1.0,2.0,69,0.00,,,0.00,Wunderground v.1.15,2013-06-14 12:40:00,
2013-06-14 08:48:00,63.9,55.4,29.56,SSE,156,1.0,1.0,74,0.00,,,0.00,Wunderground v.1.15,2013-06-14 12:48:00,
2013-06-14 08:53:00,64.2,54.2,29.57,SSW,195,1.0,2.0,70,0.00,,,0.00,Wunderground v.1.15,2013-06-14 12:53:00,
2013-06-14 08:59:00,64.5,56.0,29.57,SSW,203,1.0,7.0,74,0.00,,,0.00,Wunderground v.1.15,2013-06-14 12:59:00,
2013-06-14 09:04:00,64.7,54.7,29.57,SSW,196,1.0,1.0,70,0.00,,,0.00,Wunderground v.1.15,2013-06-14 13:04:00,
2013-06-14 09:10:00,64.8,54.0,29.57,WSW,256,1.0,1.0,68,0.00,,,0.00,Wunderground v.1.15,2013-06-14 13:10:00,
2013-06-14 09:16:00,64.7,54.7,29.58,South,170,1.0,2.0,70,0.00,,,0.00,Wunderground v.1.15,2013-06-14 13:16:00,
2013-06-14 09:22:00,65.0,54.2,29.58,SSW,192,1.0,1.0,68,0.00,,,0.00,Wunderground v.1.15,2013-06-14 13:22:00,
2013-06-14 09:28:00,65.5,54.2,29.58,SSE,166,1.0,1.0,67,0.00,,,0.00,Wunderground v.1.15,2013-06-14 13:28:00,
2013-06-14 09:34:00,65.7,55.2,29.58,SE,146,1.0,4.0,69,0.00,,,0.00,Wunderground v.1.15,2013-06-14 13:34:00,
2013-06-14 09:39:00,65.9,54.2,29.59,ESE,118,1.0,4.0,66,0.00,,,0.00,Wunderground v.1.15,2013-06-14 13:39:00,
2013-06-14 09:44:00,66.2,53.7,29.59,SSE,163,1.0,5.0,64,0.00,,,0.00,Wunderground v.1.15,2013-06-14 13:44:00,
2013-06-14 09:50:00,66.5,54.4,29.59,NW,323,1.0,3.0,65,0.00,,,0.00,Wunderground v.1.15,2013-06-14 13:50:00,
2013-06-14 09:56:00,66.8,53.8,29.59,NW,307,1.0,4.0,63,0.00,,,0.00,Wunderground v.1.15,2013-06-14 13:56:00,
2013-06-14 10:01:00,66.9,54.3,29.59,WNW,286,1.0,1.0,64,0.00,,,0.00,Wunderground v.1.15,2013-06-14 14:01:00,
2013-06-14 10:07:00,67.1,54.5,29.60,NE,39,1.0,4.0,64,0.00,,,0.00,Wunderground v.1.15,2013-06-14 14:07:00,
2013-06-14 10:12:00,67.3,54.7,29.60,NNW,338,2.0,2.0,64,0.00,,,0.00,Wunderground v.1.15,2013-06-14 14:12:00,
2013-06-14 10:18:00,67.6,54.1,29.60,NE,43,1.0,2.0,62,0.00,,,0.00,Wunderground v.1.15,2013-06-14 14:18:00,
2013-06-14 10:23:00,67.8,56.4,29.60,NE,42,1.0,3.0,67,0.00,,,0.00,Wunderground v.1.15,2013-06-14 14:23:00,
2013-06-14 10:28:00,68.0,55.4,29.60,North,351,1.0,3.0,64,0.00,,,0.00,Wunderground v.1.15,2013-06-14 14:28:00,
2013-06-14 10:34:00,68.3,55.6,29.61,WSW,257,1.0,3.0,64,0.00,,,0.00,Wunderground v.1.15,2013-06-14 14:34:00,
2013-06-14 10:40:00,68.8,56.6,29.61,NW,310,1.0,2.0,65,0.00,,,0.00,Wunderground v.1.15,2013-06-14 14:40:00,
2013-06-14 10:48:00,69.5,56.3,29.61,NNW,331,2.0,2.0,63,0.00,,,0.00,Wunderground v.1.15,2013-06-14 14:48:00,
2013-06-14 10:54:00,70.3,56.2,29.61,NW,321,1.0,2.0,61,0.00,,,0.00,Wunderground v.1.15,2013-06-14 14:54:00,
2013-06-14 10:59:00,70.8,56.2,29.61,ENE,60,0.0,4.0,60,0.00,,,0.00,Wunderground v.1.15,2013-06-14 14:59:00,
2013-06-14 11:05:00,71.2,55.7,29.61,NE,55,1.0,1.0,58,0.00,,,0.00,Wunderground v.1.15,2013-06-14 15:05:00,
2013-06-14 11:10:00,71.3,55.8,29.61,SE,136,1.0,1.0,58,0.00,,,0.00,Wunderground v.1.15,2013-06-14 15:10:00,
2013-06-14 11:16:00,71.3,56.2,29.61,SSW,196,1.0,4.0,59,0.00,,,0.00,Wunderground v.1.15,2013-06-14 15:16:00,
2013-06-14 11:22:00,71.4,56.8,29.61,WSW,257,0.0,2.0,60,0.00,,,0.00,Wunderground v.1.15,2013-06-14 15:22:00,
2013-06-14 11:28:00,71.7,57.5,29.61,South,175,1.0,2.0,61,0.00,,,0.00,Wunderground v.1.15,2013-06-14 15:28:00,
2013-06-14 11:34:00,72.1,56.5,29.61,West,275,1.0,1.0,58,0.00,,,0.00,Wunderground v.1.15,2013-06-14 15:34:00,
2013-06-14 11:40:00,72.4,56.3,29.61,SSW,202,1.0,4.0,57,0.00,,,0.00,Wunderground v.1.15,2013-06-14 15:40:00,
2013-06-14 11:45:00,72.8,58.1,29.61,NNE,20,1.0,4.0,60,0.00,,,0.00,Wunderground v.1.15,2013-06-14 15:45:00,
2013-06-14 11:51:00,73.4,56.7,29.61,SSW,195,0.0,1.0,56,0.00,,,0.00,Wunderground v.1.15,2013-06-14 15:51:00,
2013-06-14 11:56:00,73.5,56.8,29.61,WNW,302,1.0,2.0,56,0.00,,,0.00,Wunderground v.1.15,2013-06-14 15:56:00,
2013-06-14 12:02:00,73.7,57.0,29.61,North,11,1.0,2.0,56,0.00,,,0.00,Wunderground v.1.15,2013-06-14 16:02:00,
2013-06-14 12:07:00,74.0,57.3,29.61,WSW,240,1.0,2.0,56,0.00,,,0.00,Wunderground v.1.15,2013-06-14 16:07:00,
2013-06-14 12:13:00,74.1,56.4,29.61,SSE,165,1.0,1.0,54,0.00,,,0.00,Wunderground v.1.15,2013-06-14 16:13:00,
2013-06-14 12:19:00,74.4,57.7,29.60,ESE,119,1.0,1.0,56,0.00,,,0.00,Wunderground v.1.15,2013-06-14 16:19:00,
2013-06-14 12:25:00,74.4,57.2,29.60,West,265,1.0,4.0,55,0.00,,,0.00,Wunderground v.1.15,2013-06-14 16:25:00,
2013-06-14 12:30:00,74.8,57.5,29.60,South,188,1.0,1.0,55,0.00,,,0.00,Wunderground v.1.15,2013-06-14 16:30:00,
2013-06-14 12:36:00,75.4,60.1,29.60,NE,48,0.0,2.0,59,0.00,,,0.00,Wunderground v.1.15,2013-06-14 16:36:00,
2013-06-14 12:41:00,75.8,58.0,29.60,NW,318,1.0,2.0,54,0.00,,,0.00,Wunderground v.1.15,2013-06-14 16:41:00,
2013-06-14 12:48:00,76.3,57.4,29.60,NE,40,1.0,1.0,52,0.00,,,0.00,Wunderground v.1.15,2013-06-14 16:48:00,
2013-06-14 12:54:00,76.2,60.3,29.61,NW,313,1.0,3.0,58,0.00,,,0.00,Wunderground v.1.15,2013-06-14 16:54:00,
2013-06-14 13:00:00,76.5,57.6,29.60,NW,315,1.0,1.0,52,0.00,,,0.00,Wunderground v.1.15,2013-06-14 17:00:00,
2013-06-14 13:06:00,77.0,58.6,29.61,NE,55,2.0,2.0,53,0.00,,,0.00,Wunderground v.1.15,2013-06-14 17:06:00,
2013-06-14 13:12:00,77.4,57.9,29.61,ENE,76,1.0,1.0,51,0.00,,,0.00,Wunderground v.1.15,2013-06-14 17:12:00,
2013-06-14 13:18:00,77.5,57.9,29.61,NNE,28,1.0,2.0,51,0.00,,,0.00,Wunderground v.1.15,2013-06-14 17:18:00,
2013-06-14 13:24:00,77.8,59.3,29.61,SW,231,1.0,2.0,53,0.00,,,0.00,Wunderground v.1.15,2013-06-14 17:24:00,
2013-06-14 13:30:00,77.6,57.5,29.60,East,99,1.0,2.0,50,0.00,,,0.00,Wunderground v.1.15,2013-06-14 17:30:00,
2013-06-14 13:35:00,77.5,57.4,29.61,NNW,345,1.0,2.0,50,0.00,,,0.00,Wunderground v.1.15,2013-06-14 17:35:00,
2013-06-14 13:41:00,77.4,58.4,29.61,NE,46,1.0,1.0,52,0.00,,,0.00,Wunderground v.1.15,2013-06-14 17:41:00,
2013-06-14 13:48:00,77.5,56.8,29.61,West,259,1.0,1.0,49,0.00,,,0.00,Wunderground v.1.15,2013-06-14 17:48:00,
2013-06-14 13:54:00,77.8,57.1,29.61,West,261,1.0,3.0,49,0.00,,,0.00,Wunderground v.1.15,2013-06-14 17:54:00,
2013-06-14 14:00:00,77.8,57.1,29.61,NW,318,2.0,2.0,49,0.00,,,0.00,Wunderground v.1.15,2013-06-14 18:00:00,
2013-06-14 14:06:00,78.2,57.5,29.61,SE,144,1.0,2.0,49,0.00,,,0.00,Wunderground v.1.15,2013-06-14 18:06:00,
2013-06-14 14:11:00,78.3,56.4,29.61,West,264,1.0,2.0,47,0.00,,,0.00,Wunderground v.1.15,2013-06-14 18:11:00,
2013-06-14 14:17:00,78.2,57.5,29.60,West,268,1.0,3.0,49,0.00,,,0.00,Wunderground v.1.15,2013-06-14 18:17:00,
2013-06-14 14:23:00,78.5,56.0,29.60,SSW,213,1.0,3.0,46,0.00,,,0.00,Wunderground v.1.15,2013-06-14 18:23:00,
2013-06-14 14:28:00,78.8,56.3,29.60,SE,142,2.0,3.0,46,0.00,,,0.00,Wunderground v.1.15,2013-06-14 18:28:00,
2013-06-14 14:33:00,78.8,57.4,29.60,NNE,14,2.0,4.0,48,0.00,,,0.00,Wunderground v.1.15,2013-06-14 18:33:00,
2013-06-14 14:39:00,78.9,55.8,29.60,South,173,3.0,4.0,45,0.00,,,0.00,Wunderground v.1.15,2013-06-14 18:39:00,
2013-06-14 14:45:00,79.2,56.0,29.60,West,277,1.0,4.0,45,0.00,,,0.00,Wunderground v.1.15,2013-06-14 18:45:00,
2013-06-14 14:50:00,79.3,56.7,29.59,NE,54,2.0,2.0,46,0.00,,,0.00,Wunderground v.1.15,2013-06-14 18:50:00,
2013-06-14 14:56:00,79.6,55.8,29.59,SE,137,1.0,5.0,44,0.00,,,0.00,Wunderground v.1.15,2013-06-14 18:56:00,
2013-06-14 15:02:00,79.8,57.8,29.59,NW,319,1.0,1.0,47,0.00,,,0.00,Wunderground v.1.15,2013-06-14 19:02:00,
2013-06-14 15:08:00,80.2,58.1,29.60,NW,312,1.0,3.0,47,0.00,,,0.00,Wunderground v.1.15,2013-06-14 19:08:00,
2013-06-14 15:14:00,80.1,59.2,29.60,ESE,117,1.0,1.0,49,0.00,,,0.00,Wunderground v.1.15,2013-06-14 19:14:00,
2013-06-14 15:20:00,80.1,56.2,29.60,NNW,338,1.0,2.0,44,0.00,,,0.00,Wunderground v.1.15,2013-06-14 19:20:00,
2013-06-14 15:25:00,80.3,58.2,29.59,SSE,147,1.0,3.0,47,0.00,,,0.00,Wunderground v.1.15,2013-06-14 19:25:00,
2013-06-14 15:31:00,79.9,57.3,29.60,WNW,294,1.0,2.0,46,0.00,,,0.00,Wunderground v.1.15,2013-06-14 19:31:00,
2013-06-14 15:36:00,79.9,57.3,29.60,NW,322,1.0,2.0,46,0.00,,,0.00,Wunderground v.1.15,2013-06-14 19:36:00,
2013-06-14 15:42:00,80.1,56.8,29.59,ENE,74,2.0,3.0,45,0.00,,,0.00,Wunderground v.1.15,2013-06-14 19:42:00,
2013-06-14 15:48:00,80.0,57.4,29.59,NW,321,2.0,2.0,46,0.00,,,0.00,Wunderground v.1.15,2013-06-14 19:48:00,
2013-06-14 15:54:00,80.3,60.0,29.59,South,188,1.0,2.0,50,0.00,,,0.00,Wunderground v.1.15,2013-06-14 19:54:00,
2013-06-14 16:00:00,80.6,57.9,29.59,NE,49,1.0,1.0,46,0.00,,,0.00,Wunderground v.1.15,2013-06-14 20:00:00,
2013-06-14 16:06:00,80.7,59.2,29.60,North,355,1.0,2.0,48,0.00,,,0.00,Wunderground v.1.15,2013-06-14 20:06:00,
2013-06-14 16:12:00,81.0,57.7,29.59,WNW,302,1.0,2.0,45,0.00,,,0.00,Wunderground v.1.15,2013-06-14 20:12:00,
2013-06-14 16:17:00,81.3,56.0,29.60,NE,38,0.0,2.0,42,0.00,,,0.00,Wunderground v.1.15,2013-06-14 20:17:00,
2013-06-14 16:23:00,81.3,57.3,29.59,North,355,1.0,3.0,44,0.00,,,0.00,Wunderground v.1.15,2013-06-14 20:23:00,
2013-06-14 16:29:00,80.2,59.9,29.59,West,275,1.0,3.0,50,0.00,,,0.00,Wunderground v.1.15,2013-06-14 20:29:00,
2013-06-14 16:35:00,80.2,61.5,29.60,South,175,1.0,2.0,53,0.00,,,0.00,Wunderground v.1.15,2013-06-14 20:35:00,
2013-06-14 16:40:00,80.6,61.9,29.59,East,98,0.0,1.0,53,0.00,,,0.00,Wunderground v.1.15,2013-06-14 20:40:00,
2013-06-14 16:48:00,80.7,62.0,29.59,ESE,111,0.0,0.0,53,0.00,,,0.00,Wunderground v.1.15,2013-06-14 20:48:00,
2013-06-14 16:54:00,80.3,62.1,29.59,NW,323,0.0,1.0,54,0.00,,,0.00,Wunderground v.1.15,2013-06-14 20:54:00,
2013-06-14 16:59:00,80.3,64.7,29.59,NW,322,0.0,3.0,59,0.00,,,0.00,Wunderground v.1.15,2013-06-14 20:59:00,
2013-06-14 17:05:00,80.2,65.1,29.59,SW,216,0.0,0.0,60,0.00,,,0.00,Wunderground v.1.15,2013-06-14 21:05:00,
2013-06-14 17:11:00,80.3,60.5,29.60,WNW,299,0.0,0.0,51,0.00,,,0.00,Wunderground v.1.15,2013-06-14 21:11:00,
2013-06-14 17:16:00,80.3,60.5,29.60,NW,326,0.0,2.0,51,0.00,,,0.00,Wunderground v.1.15,2013-06-14 21:16:00,
2013-06-14 17:22:00,79.7,61.6,29.59,NW,319,0.0,1.0,54,0.00,,,0.00,Wunderground v.1.15,2013-06-14 21:22:00,
2013-06-14 17:28:00,79.1,61.5,29.60,NW,319,0.0,1.0,55,0.00,,,0.00,Wunderground v.1.15,2013-06-14 21:28:00,
2013-06-14 17:33:00,78.6,60.6,29.60,NW,320,0.0,0.0,54,0.00,,,0.00,Wunderground v.1.15,2013-06-14 21:33:00,
2013-06-14 17:38:00,78.4,60.9,29.60,NW,319,0.0,0.0,55,0.00,,,0.00,Wunderground v.1.15,2013-06-14 21:38:00,
2013-06-14 17:43:00,78.0,60.5,29.60,NW,319,0.0,0.0,55,0.00,,,0.00,Wunderground v.1.15,2013-06-14 21:43:00,
2013-06-14 17:48:00,78.2,62.7,29.60,NW,319,0.0,0.0,59,0.00,,,0.00,Wunderground v.1.15,2013-06-14 21:48:00,
2013-06-14 17:54:00,78.0,60.5,29.60,NW,316,0.0,1.0,55,0.00,,,0.00,Wunderground v.1.15,2013-06-14 21:54:00,
2013-06-14 18:00:00,77.6,59.6,29.61,NW,316,0.0,0.0,54,0.00,,,0.00,Wunderground v.1.15,2013-06-14 22:00:00,
2013-06-14 18:06:00,77.7,62.2,29.61,NW,316,0.0,0.0,59,0.00,,,0.00,Wunderground v.1.15,2013-06-14 22:06:00,
2013-06-14 18:11:00,78.0,61.5,29.60,NW,316,0.0,0.0,57,0.00,,,0.00,Wunderground v.1.15,2013-06-14 22:11:00,
2013-06-14 18:17:00,78.6,60.0,29.60,NW,316,0.0,1.0,53,0.00,,,0.00,Wunderground v.1.15,2013-06-14 22:17:00,
2013-06-14 18:23:00,78.9,61.9,29.60,NW,316,0.0,0.0,56,0.00,,,0.00,Wunderground v.1.15,2013-06-14 22:23:00,
2013-06-14 18:29:00,78.6,61.6,29.60,NW,316,0.0,0.0,56,0.00,,,0.00,Wunderground v.1.15,2013-06-14 22:29:00,
2013-06-14 18:34:00,77.8,64.6,29.60,NW,316,0.0,1.0,64,0.00,,,0.00,Wunderground v.1.15,2013-06-14 22:34:00,
2013-06-14 18:40:00,77.1,64.4,29.60,NW,316,0.0,0.0,65,0.00,,,0.00,Wunderground v.1.15,2013-06-14 22:40:00,
2013-06-14 18:48:00,76.2,64.4,29.61,NW,316,0.0,0.0,67,0.00,,,0.00,Wunderground v.1.15,2013-06-14 22:48:00,
2013-06-14 18:54:00,75.7,64.8,29.61,NW,316,0.0,1.0,69,0.00,,,0.00,Wunderground v.1.15,2013-06-14 22:54:00,
2013-06-14 19:00:00,75.1,62.1,29.61,NW,316,0.0,0.0,64,0.00,,,0.00,Wunderground v.1.15,2013-06-14 23:00:00,
2013-06-14 19:06:00,74.7,63.9,29.61,NW,316,0.0,1.0,69,0.00,,,0.00,Wunderground v.1.15,2013-06-14 23:06:00,
2013-06-14 19:11:00,74.6,64.2,29.61,NW,316,0.0,0.0,70,0.00,,,0.00,Wunderground v.1.15,2013-06-14 23:11:00,
2013-06-14 19:17:00,74.5,64.1,29.61,NW,316,0.0,1.0,70,0.00,,,0.00,Wunderground v.1.15,2013-06-14 23:17:00,
2013-06-14 19:23:00,74.1,63.7,29.62,NW,316,0.0,0.0,70,0.00,,,0.00,Wunderground v.1.15,2013-06-14 23:23:00,
2013-06-14 19:29:00,73.8,63.0,29.62,NW,316,0.0,1.0,69,0.00,,,0.00,Wunderground v.1.15,2013-06-14 23:29:00,
2013-06-14 19:34:00,73.5,62.7,29.62,NW,316,0.0,0.0,69,0.00,,,0.00,Wunderground v.1.15,2013-06-14 23:34:00,
2013-06-14 19:40:00,73.0,62.6,29.63,NW,316,0.0,0.0,70,0.00,,,0.00,Wunderground v.1.15,2013-06-14 23:40:00,
2013-06-14 19:48:00,72.3,63.2,29.63,NW,316,0.0,0.0,73,0.00,,,0.00,Wunderground v.1.15,2013-06-14 23:48:00,
2013-06-14 19:54:00,72.1,63.4,29.64,NW,316,0.0,0.0,74,0.00,,,0.00,Wunderground v.1.15,2013-06-14 23:54:00,
2013-06-14 20:00:00,71.9,63.2,29.64,NW,316,0.0,0.0,74,0.00,,,0.00,Wunderground v.1.15,2013-06-15 00:00:00,
2013-06-14 20:06:00,71.7,63.4,29.64,NW,316,0.0,0.0,75,0.00,,,0.00,Wunderground v.1.15,2013-06-15 00:06:00,
2013-06-14 20:11:00,71.6,63.6,29.64,NW,316,0.0,0.0,76,0.00,,,0.00,Wunderground v.1.15,2013-06-15 00:11:00,
2013-06-14 20:17:00,71.4,63.1,29.64,NW,316,0.0,0.0,75,0.00,,,0.00,Wunderground v.1.15,2013-06-15 00:17:00,
2013-06-14 20:22:00,71.2,63.2,29.64,NW,316,0.0,0.0,76,0.00,,,0.00,Wunderground v.1.15,2013-06-15 00:22:00,
2013-06-14 20:27:00,71.1,63.1,29.64,NW,316,0.0,0.0,76,0.00,,,0.00,Wunderground v.1.15,2013-06-15 00:27:00,
2013-06-14 20:33:00,70.9,63.3,29.65,NW,316,0.0,0.0,77,0.00,,,0.00,Wunderground v.1.15,2013-06-15 00:33:00,
2013-06-14 20:38:00,70.7,63.1,29.65,NW,316,0.0,0.0,77,0.00,,,0.00,Wunderground v.1.15,2013-06-15 00:38:00,
2013-06-14 20:43:00,70.5,62.9,29.65,NW,316,0.0,0.0,77,0.00,,,0.00,Wunderground v.1.15,2013-06-15 00:43:00,
2013-06-14 20:48:00,70.3,62.7,29.65,NW,316,0.0,0.0,77,0.00,,,0.00,Wunderground v.1.15,2013-06-15 00:48:00,
2013-06-14 20:54:00,70.0,62.1,29.65,NW,316,0.0,0.0,76,0.00,,,0.00,Wunderground v.1.15,2013-06-15 00:54:00,
2013-06-14 20:59:00,69.8,61.9,29.65,NW,316,0.0,0.0,76,0.00,,,0.00,Wunderground v.1.15,2013-06-15 00:59:00,
2013-06-14 21:04:00,69.7,62.2,29.66,NW,316,0.0,0.0,77,0.00,,,0.00,Wunderground v.1.15,2013-06-15 01:04:00,
2013-06-14 21:10:00,69.5,62.3,29.66,NW,316,0.0,0.0,78,0.00,,,0.00,Wunderground v.1.15,2013-06-15 01:10:00,
2013-06-14 21:16:00,69.3,62.1,29.66,NW,316,0.0,0.0,78,0.00,,,0.00,Wunderground v.1.15,2013-06-15 01:16:00,
2013-06-14 21:21:00,69.1,61.6,29.66,NW,316,0.0,0.0,77,0.00,,,0.00,Wunderground v.1.15,2013-06-15 01:21:00,
2013-06-14 21:27:00,68.9,61.8,29.66,NW,316,0.0,0.0,78,0.00,,,0.00,Wunderground v.1.15,2013-06-15 01:27:00,
2013-06-14 21:33:00,68.7,62.3,29.67,NW,316,0.0,0.0,80,0.00,,,0.00,Wunderground v.1.15,2013-06-15 01:33:00,
2013-06-14 21:39:00,68.3,61.5,29.67,NW,316,0.0,0.0,79,0.00,,,0.00,Wunderground v.1.15,2013-06-15 01:39:00,
2013-06-14 21:44:00,68.1,61.3,29.67,NW,316,0.0,0.0,79,0.00,,,0.00,Wunderground v.1.15,2013-06-15 01:44:00,
2013-06-14 21:50:00,67.7,61.0,29.68,NW,316,0.0,0.0,79,0.00,,,0.00,Wunderground v.1.15,2013-06-15 01:50:00,
2013-06-14 21:56:00,67.2,60.1,29.68,NW,316,0.0,1.0,78,0.00,,,0.00,Wunderground v.1.15,2013-06-15 01:56:00,
2013-06-14 22:02:00,66.7,60.3,29.68,NW,316,0.0,0.0,80,0.00,,,0.00,Wunderground v.1.15,2013-06-15 02:02:00,
2013-06-14 22:07:00,66.4,60.4,29.68,NW,316,0.0,0.0,81,0.00,,,0.00,Wunderground v.1.15,2013-06-15 02:07:00,
2013-06-14 22:13:00,66.0,59.3,29.69,NW,316,0.0,0.0,79,0.00,,,0.00,Wunderground v.1.15,2013-06-15 02:13:00,
2013-06-14 22:19:00,65.8,59.5,29.69,NW,316,0.0,0.0,80,0.00,,,0.00,Wunderground v.1.15,2013-06-15 02:19:00,
2013-06-14 22:25:00,65.5,59.2,29.70,NW,316,0.0,0.0,80,0.00,,,0.00,Wunderground v.1.15,2013-06-15 02:25:00,
2013-06-14 22:31:00,65.2,58.9,29.70,NW,316,0.0,0.0,80,0.00,,,0.00,Wunderground v.1.15,2013-06-15 02:31:00,
2013-06-14 22:36:00,65.0,58.7,29.71,NW,316,0.0,0.0,80,0.00,,,0.00,Wunderground v.1.15,2013-06-15 02:36:00,
2013-06-14 22:42:00,64.7,58.4,29.71,NW,316,0.0,0.0,80,0.00,,,0.00,Wunderground v.1.15,2013-06-15 02:42:00,
2013-06-14 22:48:00,64.5,58.2,29.72,NW,316,0.0,0.0,80,0.00,,,0.00,Wunderground v.1.15,2013-06-15 02:48:00,
2013-06-14 22:54:00,64.4,58.1,29.72,NW,316,0.0,0.0,80,0.00,,,0.00,Wunderground v.1.15,2013-06-15 02:54:00,
2013-06-14 23:00:00,64.4,58.4,29.72,NW,316,0.0,0.0,81,0.00,,,0.00,Wunderground v.1.15,2013-06-15 03:00:00,
2013-06-14 23:06:00,64.3,57.6,29.72,NW,316,0.0,0.0,79,0.00,,,0.00,Wunderground v.1.15,2013-06-15 03:06:00,
2013-06-14 23:11:00,64.3,58.0,29.73,NW,316,0.0,0.0,80,0.00,,,0.00,Wunderground v.1.15,2013-06-15 03:11:00,
2013-06-14 23:17:00,64.3,57.6,29.73,NW,316,0.0,0.0,79,0.00,,,0.00,Wunderground v.1.15,2013-06-15 03:17:00,
2013-06-14 23:22:00,64.3,57.6,29.73,NW,316,0.0,0.0,79,0.00,,,0.00,Wunderground v.1.15,2013-06-15 03:22:00,
2013-06-14 23:28:00,64.3,58.3,29.73,NW,316,0.0,0.0,81,0.00,,,0.00,Wunderground v.1.15,2013-06-15 03:28:00,
2013-06-14 23:34:00,64.2,57.9,29.74,NW,316,0.0,1.0,80,0.00,,,0.00,Wunderground v.1.15,2013-06-15 03:34:00,
2013-06-14 23:39:00,64.1,58.1,29.74,NW,316,0.0,1.0,81,0.00,,,0.00,Wunderground v.1.15,2013-06-15 03:39:00,
2013-06-14 23:45:00,64.0,57.7,29.74,NW,316,0.0,0.0,80,0.00,,,0.00,Wunderground v.1.15,2013-06-15 03:45:00,
2013-06-14 23:51:00,63.9,57.6,29.74,NW,316,0.0,0.0,80,0.00,,,0.00,Wunderground v.1.15,2013-06-15 03:51:00,
2013-06-14 23:56:00,63.8,57.5,29.74,NW,316,0.0,0.0,80,0.00,,,0.00,Wunderground v.1.15,2013-06-15 03:56:00,